Curacao, Curacao

1:45 AM AST on February 21, 2018 (GMT -0400)
Willemstad-Hato International

Weather History for TNCC - October, 2013

Change the Weather History Date:

Wednesday, October 30, 2013

  Actual Average Record
Temperature  
Mean Temperature 84 °F -  
Max Temperature 90 °F 86 °F 93 °F (1999)
Min Temperature 78 °F 76 °F 72 °F (2012)
Cooling Degree Days 19    
Growing Degree Days 34 (Base 50)    
Moisture  
Dew Point 75 °F    
Average Humidity 78    
Maximum Humidity 89    
Minimum Humidity 65    
Precipitation  
Precipitation 0.16 in 0.13 in - ()
Sea Level Pressure  
Sea Level Pressure 29.86 in    
Wind  
Wind Speed 10 mph ()    
Max Wind Speed 15 mph    
Max Gust Speed -    
Visibility 6.8 miles    
Events Rain , Thunderstorm    
Averages and records for this station are not official NWS values.
T = Trace of Precipitation, MM = Missing Value Source: Averaged Metar Reports

Daily Weather History Graph

Daily Weather History Graph

Search for Another Location

Airport or City:

Trip Planner

Search our weather history database for the weather conditions in past years. The results will help you decide how hot, cold, wet, or windy it might be!

Date:

Astronomy

Oct. 30, 2013 Rise Set
Actual Time 6:28 AM AST 6:10 PM AST
Civil Twilight 6:06 AM AST 6:32 PM AST
Nautical Twilight 5:41 AM AST 6:57 PM AST
Astronomical Twilight 5:16 AM AST 7:22 PM AST
Moon 2:54 AM AST (10/30) 3:18 PM AST (10/30)
Length of Visible Light 12h 25m
Length of Day
11h 42m
Waning Crescent, 17% of the Moon is Illuminated
Oct 30
Waning Crescent
Nov 3
New
Nov 10
First Quarter
Nov 17
Full
Nov 25
Last Quarter

Hourly Weather History & Observations

Time (AST) Temp. Heat Index Dew Point Humidity Pressure Visibility Wind Dir Wind Speed Gust Speed Precip Events Conditions
12:00 AM 82.4 °F 89.5 °F 75.2 °F 79% 29.89 in 6.2 mi East 13.8 mph - N/A   Partly Cloudy
1:00 AM 82.4 °F 89.5 °F 75.2 °F 79% 29.86 in 6.2 mi East 12.7 mph - N/A   Partly Cloudy
2:00 AM 83 °F - 76 °F 74% 29.86 in 31 mi ESE 12.7 mph - -   Scattered Clouds
2:00 AM 82.4 °F 89.5 °F 75.2 °F 79% 29.83 in 6.2 mi East 15.0 mph - N/A   Partly Cloudy
3:00 AM 82.4 °F 89.5 °F 75.2 °F 79% 29.83 in 6.2 mi East 13.8 mph - N/A   Partly Cloudy
4:00 AM 82.4 °F 89.5 °F 75.2 °F 79% 29.83 in 6.2 mi East 11.5 mph - N/A   Partly Cloudy
5:00 AM 82.4 °F 89.5 °F 75.2 °F 79% 29.83 in 6.2 mi East 11.5 mph - N/A   Partly Cloudy
6:00 AM 82.4 °F 89.5 °F 75.2 °F 79% 29.83 in 6.2 mi East 9.2 mph - N/A   Partly Cloudy
7:00 AM 82.4 °F 89.5 °F 75.2 °F 79% 29.86 in 6.2 mi ESE 6.9 mph - N/A   Partly Cloudy
8:00 AM 85 °F - 75 °F 65% 29.88 in 16 mi East 10.4 mph - -   Partly Cloudy
8:00 AM 84.2 °F 92.3 °F 75.2 °F 74% 29.89 in 6.2 mi East 11.5 mph - N/A   Scattered Clouds
9:00 AM 87.8 °F 97.6 °F 75.2 °F 66% 29.89 in 6.2 mi East 11.5 mph - N/A   Scattered Clouds
10:00 AM 87.8 °F 97.6 °F 75.2 °F 66% 29.92 in 6.2 mi East 9.2 mph - N/A   Scattered Clouds
11:00 AM 87.8 °F 97.6 °F 75.2 °F 66% 29.92 in 6.2 mi East 9.2 mph - N/A   Scattered Clouds
12:00 PM 82.4 °F 89.5 °F 75.2 °F 79% 29.92 in 3.1 mi East 15.0 mph - N/A Rain Rain Showers
12:16 PM 78.8 °F - 73.4 °F 83% 29.89 in 6.2 mi Variable 3.5 mph - N/A   Scattered Clouds
12:25 PM 78.8 °F - 75.2 °F 89% 29.89 in 6.2 mi Variable 3.5 mph - N/A Rain , Thunderstorm Light Thunderstorms and Rain
1:00 PM 80.6 °F 86.2 °F 75.2 °F 84% 29.86 in 6.2 mi East 5.8 mph - N/A Thunderstorm Thunderstorm
2:00 PM 79 °F - 74 °F 79% 29.86 in 5 mi ESE 4.6 mph - - Rain , Thunderstorm Thunderstorms and Rain
2:00 PM 78.8 °F - 73.4 °F 83% 29.86 in 5.0 mi East 8.1 mph - N/A Rain , Thunderstorm Light Thunderstorms and Rain
3:00 PM 78.8 °F - 73.4 °F 83% 29.86 in 6.2 mi East 8.1 mph - N/A   Mostly Cloudy
4:00 PM 80.6 °F 87.1 °F 77.0 °F 89% 29.80 in 6.2 mi East 6.9 mph - N/A   Partly Cloudy
5:00 PM 82 °F - 75 °F 73% 29.81 in 22 mi East 9.2 mph - -   Partly Cloudy
5:00 PM 82.4 °F 89.5 °F 75.2 °F 79% 29.80 in 6.2 mi East 8.1 mph - N/A   Partly Cloudy
6:00 PM 80.6 °F 86.2 °F 75.2 °F 84% 29.80 in 6.2 mi East 8.1 mph - N/A   Partly Cloudy
7:00 PM 82.4 °F 88.2 °F 73.4 °F 74% 29.83 in 6.2 mi East 11.5 mph - N/A   Partly Cloudy
8:00 PM 82 °F - 75 °F 73% 29.86 in 22 mi East 10.4 mph - -   Partly Cloudy
8:00 PM 82.4 °F 89.5 °F 75.2 °F 79% 29.86 in 6.2 mi East 12.7 mph - N/A   Partly Cloudy
9:00 PM 82.4 °F 89.5 °F 75.2 °F 79% 29.89 in 6.2 mi East 13.8 mph - N/A   Scattered Clouds
10:00 PM 82.4 °F 89.5 °F 75.2 °F 79% 29.89 in 6.2 mi East 12.7 mph - N/A   Scattered Clouds
11:00 PM 82 °F - 74 °F 72% 29.88 in 19 mi ESE 11.5 mph - -   Partly Cloudy
11:00 PM 82.4 °F 89.5 °F 75.2 °F 79% 29.86 in 6.2 mi East 11.5 mph - N/A   Scattered Clouds